This is the latest recevied weather packets stored in our database for station/object DL3NDS-WX. If no packets are shown the sender has not sent any weather packets the latest 1 day(s).
| Time | Temp. | Humidity | Pressure | Rain* | Wind** | Luminosity | Snow |
|---|---|---|---|---|---|---|---|
| 1777986810 | 20° C | 59% | 1008.4 hPa | 0 mm | 1.79 m/s, 20° | 199 W/m² | - |
| 1777986776 | 20° C | 59% | 1008.4 hPa | 0 mm | 0.89 m/s, 351° | 204 W/m² | - |
| 1777986648 | 20° C | 59% | 1008.4 hPa | 0 mm | 1.34 m/s, 334° | 202 W/m² | - |
| 1777986587 | 20° C | 59% | 1008.4 hPa | 0 mm | 2.24 m/s, 333° | 202 W/m² | - |
| 1777986527 | 20° C | 59% | 1008.4 hPa | 0 mm | 2.24 m/s, 337° | 200 W/m² | - |
| 1777986465 | 19.44° C | 58% | 1008.4 hPa | 0 mm | 2.24 m/s, 321° | 200 W/m² | - |
| 1777986403 | 20° C | 58% | 1008.4 hPa | 0 mm | 2.24 m/s, 327° | 200 W/m² | - |
| 1777986344 | 20° C | 58% | 1008.4 hPa | 0 mm | 2.24 m/s, 331° | 188 W/m² | - |
| 1777986281 | 20° C | 59% | 1008.4 hPa | 0 mm | 2.24 m/s, 339° | 181 W/m² | - |
| 1777986220 | 20° C | 58% | 1008.5 hPa | 0 mm | 2.68 m/s, 332° | 176 W/m² | - |
| 1777986158 | 20° C | 58% | 1008.5 hPa | 0 mm | 1.79 m/s, 315° | 172 W/m² | - |
| 1777986105 | 20° C | 58% | 1008.4 hPa | 0 mm | 1.34 m/s, 14° | 171 W/m² | - |
| 1777986031 | 20° C | 59% | 1008.4 hPa | 0 mm | 0.89 m/s, 341° | 174 W/m² | - |
| 1777985974 | 20° C | 59% | 1008.5 hPa | 0 mm | 0.89 m/s, 30° | 181 W/m² | - |
| 1777985914 | 20° C | 59% | 1008.4 hPa | 0 mm | 0.89 m/s, 26° | 190 W/m² | - |
| 1777985852 | 20° C | 59% | 1008.4 hPa | 0 mm | 1.79 m/s, 352° | 200 W/m² | - |
| 1777985788 | 20° C | 58% | 1008.4 hPa | 0 mm | 2.68 m/s, 330° | 207 W/m² | - |
| 1777985729 | 20° C | 58% | 1008.4 hPa | 0 mm | 2.24 m/s, 320° | 216 W/m² | - |
| 1777985667 | 20° C | 58% | 1008.4 hPa | 0 mm | 0.89 m/s, 324° | 218 W/m² | - |
| 1777985606 | 20° C | 58% | 1008.4 hPa | 0 mm | 0.89 m/s, 337° | 221 W/m² | - |
| 1777985545 | 20° C | 58% | 1008.4 hPa | 0 mm | 1.34 m/s, 11° | 221 W/m² | - |
| 1777985483 | 20.56° C | 58% | 1008.4 hPa | 0 mm | 1.79 m/s, 37° | 230 W/m² | - |
| 1777985422 | 20.56° C | 57% | 1008.4 hPa | 0 mm | 1.79 m/s, 331° | 244 W/m² | - |
| 1777985361 | 20.56° C | 57% | 1008.5 hPa | 0 mm | 2.68 m/s, 333° | 214 W/m² | - |
| 1777985300 | 20.56° C | 57% | 1008.5 hPa | 0 mm | 3.13 m/s, 328° | 213 W/m² | - |
* Rain latest hour (hover to see other rain measurements)
** Current wind speed in m/s (hover to see current wind gust speed)